GXIBA-1

Last updated on Wed Aug 26 2026 00:02:34 GMT+0000 (Coordinated Universal Time)

1 67685U 98067YB 26237.36147271 .00074322 00000+0 61343-3 0 9990 2 67685 51.6242 302.9424 0008063 77.9613 282.2287 15.69610374 31128
UTC large
Height (km)
Speed (km/s)
/
Latitude / Longitude
Inclination (degrees)
Orbital Period (minutes)
Azimuth
Elevation
Range (km)
Doppler Factor

Next 0 passes for location: London (51.5072 / 0.1276)

No passes found over London.
GXIBA-1